Starlink 35950

operational
NORAD ID: 66622 Int'l Des: 2025-271 Owner: SPXS Country: US Constellation: starlink
LEOCIRCULAR

关于 Starlink 35950

正在加载描述...

实时位置

正在加载3D地球...

即将过境

高度历史

Altitude vs Time

uPlot chart will show altitude changes over time

两行轨道根数

1 66622U 25271F 26061.04225543 .00027526 00000-0 93790-3 0 9992
2 66622 53.1596 175.6132 0001441 81.3544 278.7620 15.30205119 16391
Epoch: Mar 2, 2026 • Age: 25 hours

当前状态

高度 475.7 km
速度 7.63 km/s
星下点 0.97°N, 3°E
发射日期 Nov 23, 2025
运行时间 0.2 years
类型 internet

技术详情

分类 Payload
质量 575.00 kg
干质量 530.00 kg
总质量 575.00 kg
长度 0.30 m
直径 4.10 m
跨度 29.00 m
形状 Box + pan
制造商 SPXS
平台类型 Starlink V2MO
阶段状态 In Orbit
所有者/国家 SPXS/US

大型星座

Loading constellations...